Bildad 1946 - 70 års jubileum i år!   Lördagen den 10 december 2016 (Malin, Malena)

Blekinge Flygklubb
Eringsbodavägen 16 B
372 92 Kallinge
Org.nr. 835600-0144

Det finns inget på Anslagstavlan.

Väder ESDF

METAR
ESDF 100420Z AUTO 24004KT 210V270 7000 DZ BR VV005/// 07/07 Q1008

TAF
Ej tillgänglig

Förgasaris
Svår is vid alla effekter

METAR | TAF | Nordic SWC | Väderstatistik

Inhämta alltid aktuellt väder hos LFV innan du flyger.

NOTAM för kommande 24h

+ = 0-3 dgr | - = >3 dgr gammal
Endast VFR. Kontrollera alltid hos LFV.